FENGYUN 3A

Last updated on Tue Jul 01 2025 00:02:21 GMT+0000 (Coordinated Universal Time)

1 32958U 08026A 25181.46123352 .00000067 00000+0 52063-4 0 9998 2 32958 98.6483 124.7025 0009792 64.5741 295.6448 14.19450750885502
UTC large
Height (km)
Speed (km/s)
/
Latitude / Longitude
Inclination (degrees)
Orbital Period (minutes)
Azimuth
Elevation
Range (km)
Doppler Factor

Next 0 passes for location: London (51.5072 / 0.1276)

Sorry there are no passes over London.